Wind_Speed
37 36 36 35 35 34 34 34 34 34 33 33 32 33 33 32 32 32 32 32 32 32 31 31 30 30 31 32 32 32 32 32 32 32 32 33 33 32 32 32 33 33 33
37 38 37 36 36 36 36 35 35 35 34 34 34 33 34 34 33 33 33 33 33 33 33 32 31 32 32 33 33 33 33 33 33 33 33 33 33 33 33 33 34 34 34
37 37 37 37 37 37 36 36 36 35 35 35 35 34 34 34 34 33 33 33 33 33 33 32 32 32 33 34 34 35 35 34 34 34 34 33 33 33 34 35 35 35 34
37 37 37 36 37 37 37 37 37 37 36 36 35 35 34 34 35 34 34 34 33 33 33 33 33 33 34 34 34 35 35 35 35 34 35 34 34 35 35 36 36 35 35
38 38 37 37 37 38 38 38 37 37 37 38 38 36 36 35 35 35 34 34 34 33 33 34 34 33 34 34 35 35 35 35 34 35 35 35 35 36 36 36 36 35 35
38 38 37 36 37 38 38 38 38 37 37 37 38 37 37 36 36 36 35 35 34 33 33 34 34 34 33 34 35 34 34 34 35 34 34 34 35 36 36 36 36 36 36
38 37 37 36 36 37 38 39 39 38 38 38 38 38 38 37 37 37 36 35 35 34 33 34 34 34 34 34 34 34 34 35 35 35 35 35 36 37 37 37 37 37 37
37 36 36 36 36 36 38 39 39 39 40 39 38 39 39 38 36 36 35 36 36 36 34 34 33 34 34 35 35 35 35 35 35 36 35 36 36 37 37 37 37 38 38
37 36 35 35 35 35 36 39 39 40 39 39 38 38 39 38 37 36 36 35 36 37 36 35 36 36 36 35 36 36 36 36 35 35 36 36 37 37 37 38 38 38 38
37 37 37 37 36 36 37 38 38 40 40 40 40 39 38 38 38 37 37 36 36 37 37 37 36 37 36 36 36 36 37 36 36 36 37 37 37 38 38 39 38 38 39
39 38 38 36 36 36 36 37 37 38 39 40 40 39 39 39 38 38 38 37 38 38 37 37 37 37 37 37 36 37 37 37 37 37 37 38 38 38 39 39 39 39 39
39 39 38 37 36 35 36 37 37 37 38 40 40 40 41 41 40 40 39 39 40 40 40 39 39 38 38 37 38 38 38 37 36 36 37 38 38 38 39 38 38 38 37
38 39 39 38 37 36 37 38 38 38 39 39 40 41 42 42 42 41 40 40 40 40 41 40 40 39 38 38 37 38 38 37 37 37 37 37 38 38 38 38 37 37 36
37 39 39 39 38 37 37 39 39 39 40 40 41 42 42 43 43 42 41 40 40 41 41 41 40 39 39 38 37 37 37 37 36 36 37 38 38 38 38 38 37 37 36
36 38 39 38 39 38 37 38 39 40 40 41 41 41 41 42 42 42 42 41 40 40 40 41 41 39 38 38 37 37 37 37 37 37 37 38 38 38 38 38 37 37 36
34 35 37 38 38 38 37 37 39 39 39 40 41 40 40 40 40 40 40 41 40 39 37 38 38 38 37 36 36 37 37 38 38 38 38 39 38 38 39 38 37 37 36
32 33 34 35 36 36 35 36 37 37 38 39 39 39 40 39 39 39 40 40 40 38 37 36 37 36 36 36 37 37 37 38 38 38 38 38 38 38 38 38 37 38 37
31 31 32 33 34 34 35 35 35 36 38 38 38 38 38 39 39 39 39 38 38 39 37 36 36 36 37 37 37 38 38 37 38 38 38 38 38 37 37 37 37 37 36
30 30 30 31 32 33 34 34 35 35 35 36 36 36 36 37 37 38 38 38 38 37 37 36 35 36 36 36 37 37 38 38 38 38 37 37 37 37 36 36 36 36 35
29 29 29 29 31 33 33 34 34 33 33 33 33 34 33 34 34 36 37 37 37 36 35 36 36 36 35 35 35 36 37 38 37 37 37 37 37 36 35 35 35 35 34
30 30 30 30 31 31 31 32 32 32 32 32 32 32 34 33 33 35 36 36 36 36 36 36 35 35 35 35 35 36 36 36 37 37 36 36 35 35 34 34 35 34 34
29 29 30 30 29 29 30 30 31 31 31 32 32 32 32 34 34 34 34 34 35 35 36 35 35 35 35 35 36 36 36 36 36 36 36 35 35 34 34 34 33 33 33
28 28 28 29 29 29 29 30 29 30 30 31 31 32 33 34 33 33 34 34 34 34 34 35 35 35 35 35 36 36 36 36 36 35 35 35 35 34 33 33 33 33 32
27 27 28 29 29 29 30 30 30 30 30 30 30 31 32 32 32 32 33 34 34 34 34 34 35 35 35 34 35 35 35 35 35 35 34 33 33 34 34 33 32 31 30
28 28 28 29 30 30 30 30 30 30 31 31 30 31 31 31 32 32 33 33 33 34 33 33 33 34 35 34 33 33 33 33 32 32 32 32 32 31 31 31 31 29 29
27 28 28 29 30 30 30 30 30 30 31 31 31 31 31 31 32 33 33 33 32 32 32 32 33 33 33 33 33 32 31 31 31 30 31 31 30 29 29 30 29 28 28
Wind_Direction
256 256 256 257 257 257 257 258 259 260 262 264 265 267 268 270 271 271 272 274 277 278 279 281 283 284 286 289 291 293 294 295 296 297 297 298 298 297 298 299 299 299 298
257 256 257 257 257 255 255 256 258 260 260 262 264 267 268 269 270 271 271 273 276 277 278 280 282 284 286 288 289 291 292 293 295 297 297 297 297 297 298 299 298 297 297
258 257 256 258 257 255 255 255 257 259 260 262 264 266 268 269 270 271 271 273 275 277 278 280 281 283 285 287 289 290 291 293 294 295 296 296 297 298 298 299 298 297 296
258 256 255 257 257 256 256 256 256 258 259 261 264 267 269 269 270 272 271 272 274 276 278 279 281 283 285 287 289 290 291 292 293 294 295 295 296 298 299 299 297 297 296
258 257 257 258 256 255 254 254 254 257 259 261 264 267 269 271 271 272 273 272 273 276 277 279 281 283 285 288 289 290 291 292 293 294 295 295 296 297 298 298 298 297 296
259 258 258 259 258 256 254 254 255 257 258 260 263 265 267 270 271 273 275 273 273 274 277 279 282 284 285 288 289 290 291 292 293 294 295 295 296 297 297 297 297 297 295
258 258 257 259 259 257 256 254 255 257 258 259 261 263 265 268 271 272 274 274 272 273 276 278 281 283 285 286 288 289 290 292 293 294 296 297 297 297 297 297 297 296 295
256 257 257 259 260 258 255 254 257 258 258 260 262 264 264 266 270 270 273 274 273 273 275 278 280 283 286 286 287 288 289 291 293 294 295 297 299 299 298 298 297 297 296
255 254 255 257 258 257 255 256 257 258 259 260 262 265 265 266 269 271 272 275 274 274 275 277 279 283 284 284 286 287 288 290 291 292 294 296 298 300 300 299 298 297 296
253 252 253 257 258 257 255 256 257 258 259 262 264 265 266 267 269 271 272 273 273 274 275 277 279 281 282 283 284 286 287 288 289 290 293 295 297 298 299 300 299 298 297
253 253 253 256 257 256 255 255 257 259 259 261 264 266 266 267 268 271 272 273 272 272 275 277 277 279 280 282 283 284 286 288 288 289 291 293 295 297 298 299 300 299 298
252 252 253 254 256 255 254 256 257 260 261 262 264 266 267 267 267 271 272 273 272 272 273 275 276 277 279 280 282 284 285 287 288 289 291 292 294 296 297 299 300 300 300
252 253 254 254 256 257 255 254 256 260 263 263 264 266 268 268 268 270 272 273 273 272 272 274 276 277 278 280 281 283 285 286 287 289 291 292 294 296 297 298 299 300 300
253 254 255 255 255 257 257 256 256 259 261 263 263 264 267 268 268 268 271 273 274 274 273 274 275 276 277 278 280 282 284 286 286 288 290 292 294 296 297 298 298 298 299
254 254 255 255 257 258 259 259 258 260 261 261 262 265 268 269 268 268 269 271 273 274 274 273 273 275 276 277 278 281 283 284 286 287 289 291 293 294 296 296 297 297 298
255 253 256 255 257 259 260 260 261 261 262 262 263 264 267 269 269 269 269 269 271 273 275 274 273 274 276 278 280 281 282 284 286 287 288 290 292 293 295 295 296 296 297
256 255 256 257 257 260 263 264 262 262 262 265 265 266 266 268 270 271 271 271 271 272 273 273 274 273 275 278 279 282 283 285 287 288 289 291 292 293 294 295 295 296 296
259 257 259 260 259 260 262 264 264 264 265 266 267 267 267 269 270 272 271 271 271 272 271 272 274 274 276 277 278 281 283 285 287 287 289 290 292 293 294 295 295 296 296
259 260 263 263 262 262 264 264 266 268 268 266 265 266 268 269 269 270 271 271 271 272 270 272 273 275 277 277 278 280 282 284 286 287 289 290 291 292 293 295 295 296 297
259 262 265 266 265 266 266 266 266 267 268 267 266 266 269 269 268 269 271 272 271 271 271 272 274 275 277 279 279 279 281 283 285 287 288 290 291 292 294 294 295 296 297
261 262 264 266 267 267 267 266 266 267 267 267 269 270 271 270 271 271 271 271 272 272 272 272 273 275 277 279 279 280 280 282 285 286 288 289 290 291 293 295 295 295 296
263 265 265 266 266 266 267 269 268 268 268 269 271 272 272 271 270 272 273 272 273 272 272 272 272 273 276 280 280 282 281 282 284 286 287 288 289 290 291 292 293 294 294
264 266 268 268 267 266 267 269 269 269 270 271 273 273 273 272 272 274 273 273 272 273 274 275 274 274 277 280 281 283 285 285 286 286 286 288 289 291 291 290 291 293 294
267 267 270 271 269 269 270 270 272 271 271 273 274 275 274 275 274 275 274 273 272 274 277 277 277 277 277 280 283 284 284 286 287 286 286 287 289 290 291 291 292 293 295
268 270 272 271 271 272 272 271 272 271 272 273 274 275 275 274 274 274 275 274 272 274 275 276 278 279 279 279 282 282 283 285 286 286 286 287 289 290 290 292 293 294 295
269 272 272 272 272 272 274 272 272 274 275 275 275 275 276 276 275 275 276 274 272 272 274 277 278 278 279 279 280 280 282 283 284 286 287 288 289 290 291 292 293 293 295
Height
5786 5788 5789 5791 5793 5794 5796 5798 5799 5801 5803 5804 5805 5805 5806 5806 5806 5807 5806 5806 5806 5806 5805 5804 5804 5803 5801 5800 5798 5796 5794 5792 5789 5787 5784 5781 5779 5776 5773 5770 5768 5765 5763
5777 5779 5780 5782 5784 5785 5787 5789 5792 5794 5795 5797 5797 5798 5798 5798 5799 5799 5799 5799 5799 5799 5798 5797 5797 5795 5794 5792 5790 5788 5786 5784 5782 5779 5776 5774 5771 5768 5765 5762 5759 5757 5755
5767 5769 5771 5773 5775 5777 5779 5781 5783 5785 5787 5789 5789 5790 5791 5791 5791 5792 5792 5792 5792 5791 5791 5790 5789 5788 5786 5784 5782 5780 5778 5776 5774 5771 5768 5766 5763 5760 5757 5754 5751 5749 5747
5757 5759 5761 5763 5765 5767 5770 5772 5774 5776 5778 5780 5781 5782 5783 5783 5784 5784 5784 5784 5784 5784 5783 5782 5781 5780 5778 5776 5774 5772 5770 5768 5765 5763 5760 5758 5755 5752 5749 5746 5743 5740 5738
5747 5749 5751 5753 5755 5758 5760 5763 5765 5767 5770 5771 5773 5774 5775 5776 5776 5776 5776 5776 5776 5775 5775 5774 5773 5771 5770 5768 5766 5763 5761 5759 5757 5755 5752 5750 5747 5744 5741 5738 5735 5732 5730
5738 5739 5742 5744 5746 5748 5751 5753 5756 5758 5760 5762 5764 5765 5766 5767 5768 5768 5768 5768 5767 5767 5767 5766 5765 5764 5762 5760 5757 5755 5753 5751 5749 5747 5744 5742 5739 5736 5733 5730 5727 5724 5721
5728 5730 5732 5735 5737 5739 5741 5744 5746 5749 5751 5753 5755 5756 5757 5758 5759 5759 5759 5759 5759 5759 5758 5758 5757 5756 5754 5752 5750 5748 5746 5743 5741 5739 5736 5733 5731 5727 5724 5721 5718 5715 5712
5718 5721 5723 5726 5728 5730 5732 5734 5737 5739 5741 5743 5745 5747 5748 5750 5750 5751 5751 5751 5751 5751 5750 5750 5748 5747 5746 5744 5742 5740 5738 5735 5733 5731 5728 5725 5722 5719 5715 5712 5709 5706 5702
5710 5712 5715 5717 5719 5721 5723 5725 5727 5730 5733 5734 5735 5737 5738 5740 5741 5742 5742 5743 5742 5742 5742 5741 5740 5739 5737 5736 5734 5732 5730 5727 5725 5722 5720 5717 5714 5710 5707 5703 5700 5696 5692
5701 5704 5706 5708 5710 5712 5714 5717 5719 5721 5723 5725 5726 5727 5729 5730 5731 5733 5733 5733 5733 5733 5733 5732 5731 5730 5728 5727 5725 5723 5721 5719 5717 5714 5712 5709 5705 5702 5698 5695 5691 5687 5683
5693 5695 5697 5700 5701 5703 5705 5708 5710 5712 5714 5716 5717 5718 5719 5720 5721 5722 5724 5724 5724 5723 5723 5722 5722 5721 5719 5718 5716 5715 5713 5711 5708 5706 5703 5700 5697 5694 5690 5686 5682 5678 5674
5685 5687 5689 5691 5693 5695 5697 5699 5701 5702 5704 5705 5707 5708 5709 5710 5712 5712 5713 5714 5714 5714 5714 5713 5712 5711 5710 5709 5708 5706 5704 5702 5700 5697 5694 5692 5689 5685 5682 5678 5674 5669 5665
5677 5679 5681 5682 5684 5686 5688 5690 5692 5693 5694 5695 5697 5698 5699 5699 5701 5702 5702 5703 5703 5704 5704 5703 5702 5702 5701 5700 5698 5697 5695 5693 5691 5688 5686 5683 5680 5677 5673 5669 5665 5661 5657
5668 5670 5672 5674 5676 5677 5679 5680 5682 5683 5684 5686 5687 5688 5689 5689 5690 5691 5692 5692 5693 5694 5693 5693 5693 5692 5691 5690 5689 5688 5686 5684 5682 5680 5677 5674 5671 5668 5665 5661 5657 5653 5649
5660 5662 5664 5665 5667 5668 5670 5671 5672 5674 5675 5677 5677 5678 5678 5679 5680 5680 5681 5682 5683 5683 5684 5683 5682 5682 5681 5680 5679 5678 5677 5675 5673 5670 5668 5665 5663 5660 5656 5653 5649 5645 5641
5652 5654 5656 5657 5658 5660 5661 5662 5663 5665 5666 5667 5667 5668 5668 5669 5669 5670 5670 5671 5671 5672 5672 5672 5672 5672 5671 5671 5670 5668 5667 5665 5663 5661 5659 5656 5654 5651 5647 5644 5640 5637 5633
5644 5646 5648 5649 5650 5651 5652 5653 5655 5655 5656 5657 5657 5658 5659 5659 5659 5660 5660 5661 5661 5661 5662 5662 5662 5662 5661 5661 5660 5659 5657 5656 5654 5652 5649 5647 5644 5641 5638 5635 5631 5628 5625
5637 5639 5640 5641 5642 5643 5644 5645 5646 5647 5648 5648 5648 5649 5649 5650 5650 5650 5650 5650 5651 5651 5652 5652 5652 5652 5652 5651 5650 5649 5648 5646 5645 5642 5640 5637 5635 5632 5629 5626 5622 5619 5616
5630 5631 5632 5633 5634 5635 5636 5637 5638 5638 5639 5639 5639 5640 5640 5641 5641 5641 5641 5641 5641 5641 5642 5643 5643 5643 5642 5641 5641 5640 5639 5637 5635 5633 5630 5628 5625 5622 5619 5617 5613 5610 5607
5623 5624 5625 5625 5626 5626 5627 5629 5629 5630 5630 5631 5631 5631 5631 5632 5632 5632 5632 5631 5631 5632 5632 5633 5633 5633 5633 5632 5631 5631 5629 5628 5626 5624 5621 5618 5616 5613 5611 5608 5605 5602 5598
5615 5616 5617 5617 5618 5618 5619 5620 5621 5621 5622 5623 5623 5623 5623 5623 5622 5622 5622 5622 5622 5622 5623 5623 5623 5624 5623 5622 5622 5621 5620 5618 5617 5615 5612 5610 5607 5605 5602 5599 5596 5593 5589
5608 5609 5609 5610 5610 5611 5612 5612 5612 5613 5614 5614 5614 5614 5614 5614 5614 5613 5613 5612 5613 5613 5613 5613 5614 5614 5614 5613 5612 5611 5610 5609 5608 5607 5604 5601 5598 5596 5593 5589 5586 5583 5580
5600 5601 5602 5602 5603 5603 5604 5604 5604 5605 5605 5605 5605 5605 5605 5605 5604 5604 5604 5603 5603 5603 5603 5604 5604 5604 5604 5603 5602 5602 5600 5598 5597 5596 5593 5591 5588 5586 5583 5580 5577 5574 5571
5593 5594 5594 5595 5595 5596 5596 5596 5597 5597 5597 5596 5596 5596 5596 5596 5595 5595 5595 5594 5594 5594 5594 5594 5595 5595 5594 5593 5592 5591 5590 5588 5587 5585 5583 5582 5579 5577 5574 5571 5568 5565 5562
5586 5586 5587 5587 5587 5588 5588 5588 5588 5589 5588 5588 5588 5587 5587 5587 5586 5586 5586 5585 5585 5585 5585 5585 5585 5584 5584 5583 5582 5581 5580 5579 5578 5577 5575 5573 5571 5569 5566 5563 5560 5557 5554
5579 5579 5579 5579 5579 5580 5579 5580 5580 5580 5580 5580 5579 5579 5578 5577 5577 5576 5576 5576 5576 5576 5576 5576 5575 5575 5574 5574 5573 5573 5572 5571 5569 5569 5567 5565 5563 5560 5559 5556 5553 5550 5546